Weather History for KHBI - July, 2014

Change the Weather History Date:

Tuesday, July 8, 2014

  Actual Average Record
Temperature  
Mean Temperature 82 °F -  
Max Temperature 93 °F 89 °F 102 °F (1977)
Min Temperature 72 °F 67 °F 52 °F (1933)
Cooling Degree Days 18    
Growing Degree Days 32 (Base 50)    
Moisture  
Dew Point 64 °F    
Average Humidity 57    
Maximum Humidity 86    
Minimum Humidity 29    
Precipitation  
Precipitation 0.00 in - - ()
Sea Level Pressure  
Sea Level Pressure 30.00 in    
Wind  
Wind Speed 7 mph (SSW)    
Max Wind Speed 15 mph    
Max Gust Speed 22 mph    
Visibility 10 miles    
Events      
Averages and records for this station are not official NWS values.
T = Trace of Precipitation, MM = Missing Value Source: NWS Daily Summary

Daily Weather History Graph

Daily Weather History Graph

Search for Another Location

Airport or City:

Trip Planner

Search our weather history database for the weather conditions in past years. The results will help you decide how hot, cold, wet, or windy it might be!

Date:

Astronomy

Jul. 08, 2014 Rise Set
Actual Time 6:11 AM EDT 8:38 PM EDT
Civil Twilight 5:41 AM EDT 9:07 PM EDT
Nautical Twilight 5:04 AM EDT 9:44 PM EDT
Astronomical Twilight 4:24 AM EDT 10:24 PM EDT
Moon 4:47 PM EDT (7/8) 2:38 AM EDT (7/8)
Length of Visible Light 15h 26m
Length of Day
14h 27m
Waxing Gibbous, 81% of the Moon is Illuminated
Jul 8
Waxing Gibbous
Jul 12
Full
Jul 18
Last Quarter
Jul 26
New
Aug 3
First Quarter

Hourly Weather History & Observations

Time (EDT) Temp. Heat Index Dew Point Humidity Pressure Visibility Wind Dir Wind Speed Gust Speed Precip Events Conditions
12:15 AM 78.8 °F - 66.4 °F 66% 30.03 in 10.0 mi South 4.6 mph - N/A   Clear
12:35 AM 78.3 °F - 66.2 °F 66% 30.03 in 10.0 mi SSW 4.6 mph - N/A   Clear
1:15 AM 77.7 °F - 66.6 °F 68% 30.03 in 10.0 mi SSW 8.1 mph - N/A   Clear
1:35 AM 77.5 °F - 66.7 °F 69% 30.02 in 10.0 mi South 8.1 mph - N/A   Clear
1:55 AM 76.6 °F - 66.7 °F 71% 30.02 in 10.0 mi South 6.9 mph - N/A   Clear
2:15 AM 75.9 °F - 66.6 °F 73% 30.02 in 10.0 mi South 5.8 mph - N/A   Clear
2:35 AM 75.2 °F - 66.6 °F 74% 30.02 in 10.0 mi South 4.6 mph - N/A   Clear
2:55 AM 74.3 °F - 66.6 °F 77% 30.02 in 10.0 mi South 5.8 mph - N/A   Clear
3:15 AM 73.8 °F - 66.6 °F 78% 30.01 in 10.0 mi South 5.8 mph - N/A   Clear
3:35 AM 73.9 °F - 66.6 °F 78% 30.01 in 10.0 mi South 3.5 mph - N/A   Clear
3:55 AM 73.9 °F - 67.1 °F 79% 30.01 in 10.0 mi SSW 5.8 mph - N/A   Clear
4:15 AM 73.6 °F - 67.1 °F 80% 30.01 in 10.0 mi South 5.8 mph - N/A   Clear
4:35 AM 73.2 °F - 67.3 °F 82% 30.01 in 10.0 mi South 5.8 mph - N/A   Clear
4:55 AM 72.9 °F - 67.5 °F 83% 30.01 in 10.0 mi South 5.8 mph - N/A   Clear
5:15 AM 73.0 °F - 67.6 °F 83% 30.00 in 10.0 mi South 5.8 mph - N/A   Clear
5:35 AM 73.0 °F - 68.0 °F 84% 29.99 in 10.0 mi South 5.8 mph - N/A   Clear
5:55 AM 72.9 °F - 68.0 °F 85% 29.99 in 10.0 mi South 5.8 mph - N/A   Clear
6:15 AM 73.2 °F - 68.2 °F 84% 30.01 in 10.0 mi SSW 6.9 mph - N/A   Clear
6:35 AM 72.7 °F - 68.2 °F 86% 30.02 in 10.0 mi SSW 6.9 mph - N/A   Clear
6:50 AM 72.9 °F - 68.5 °F 86% 30.02 in 10.0 mi SSW 8.1 mph - N/A   Clear
7:15 AM 73.4 °F - 68.9 °F 86% 30.04 in 10.0 mi SSW 8.1 mph - N/A   Clear
7:35 AM 74.1 °F - 69.1 °F 84% 30.04 in 10.0 mi SSW 6.9 mph - N/A   Clear
7:55 AM 74.5 °F - 68.9 °F 83% 30.05 in 10.0 mi SSW 10.4 mph - N/A   Scattered Clouds
8:15 AM 74.3 °F - 69.1 °F 84% 30.07 in 10.0 mi SW 6.9 mph - N/A   Scattered Clouds
8:35 AM 74.3 °F - 69.4 °F 85% 30.07 in 10.0 mi SSW 6.9 mph - N/A   Mostly Cloudy
8:55 AM 74.7 °F - 69.6 °F 84% 30.08 in 10.0 mi SSW 4.6 mph - N/A   Mostly Cloudy
9:15 AM 76.1 °F - 69.8 °F 81% 30.08 in 10.0 mi SSW 5.8 mph - N/A   Scattered Clouds
9:35 AM 77.7 °F - 68.9 °F 74% 30.07 in 10.0 mi SW 5.8 mph - N/A   Clear
9:55 AM 78.8 °F - 68.4 °F 70% 30.07 in 10.0 mi SW 4.6 mph - N/A   Clear
10:35 AM 82.6 °F 85.1 °F 66.9 °F 59% 30.05 in 10.0 mi WSW 6.9 mph - N/A   Clear
10:55 AM 84.2 °F 86.1 °F 65.5 °F 53% 30.05 in 10.0 mi West 6.9 mph - N/A   Clear
11:15 AM 85.8 °F 87.1 °F 64.2 °F 48% 30.04 in 10.0 mi SSW 10.4 mph - N/A   Clear
11:35 AM 85.8 °F 87.4 °F 64.4 °F 49% 30.04 in 10.0 mi SSW 12.7 mph - N/A   Clear
11:55 AM 87.6 °F 87.7 °F 61.5 °F 41% 30.03 in 10.0 mi SW 13.8 mph 19.6 mph N/A   Clear
12:15 PM 88.0 °F 87.9 °F 60.6 °F 40% 30.02 in 10.0 mi SSW 10.4 mph 18.4 mph N/A   Clear
12:35 PM 88.7 °F 88.6 °F 60.4 °F 39% 30.01 in 10.0 mi SSW 11.5 mph - N/A   Clear
12:55 PM 89.6 °F 87.7 °F 55.4 °F 31% 30.01 in 10.0 mi SW 9.2 mph 17.3 mph N/A   Clear
1:15 PM 90.1 °F 88.3 °F 56.1 °F 31% 30.01 in 10.0 mi WSW 9.2 mph - N/A   Clear
1:35 PM 91.0 °F 89.7 °F 57.4 °F 32% 29.99 in 10.0 mi WSW 9.2 mph - N/A   Clear
1:55 PM 91.0 °F 89.4 °F 56.8 °F 31% 29.99 in 10.0 mi SSW 11.5 mph 17.3 mph N/A   Clear
2:15 PM 91.8 °F 90.3 °F 57.4 °F 31% 29.99 in 10.0 mi SSW 6.9 mph 17.3 mph N/A   Scattered Clouds
2:35 PM 92.3 °F 91.0 °F 57.7 °F 31% 29.98 in 10.0 mi SW 11.5 mph 18.4 mph N/A   Clear
2:55 PM 92.1 °F 90.5 °F 56.5 °F 30% 29.98 in 10.0 mi SSW 10.4 mph 19.6 mph N/A   Clear
3:15 PM 93.0 °F 91.4 °F 55.9 °F 29% 29.97 in 10.0 mi SSW 12.7 mph 19.6 mph N/A   Scattered Clouds
3:35 PM 91.8 °F 90.3 °F 56.7 °F 31% 29.97 in 10.0 mi SSW 11.5 mph 18.4 mph N/A   Clear
3:55 PM 92.5 °F 91.0 °F 57.2 °F 30% 29.97 in 10.0 mi SW 10.4 mph 18.4 mph N/A   Clear
4:15 PM 92.5 °F 91.3 °F 57.6 °F 31% 29.95 in 10.0 mi SW 11.5 mph - N/A   Clear
4:35 PM 93.4 °F 92.2 °F 57.9 °F 30% 29.94 in 10.0 mi SSW 12.7 mph - N/A   Clear
4:55 PM 93.2 °F 92.2 °F 58.5 °F 31% 29.93 in 10.0 mi South 15.0 mph 18.4 mph N/A   Scattered Clouds
5:15 PM 93.6 °F 92.4 °F 58.1 °F 30% 29.92 in 10.0 mi SSW 13.8 mph 21.9 mph N/A   Clear
5:35 PM 92.8 °F 92.4 °F 59.9 °F 33% 29.93 in 10.0 mi SSW 15.0 mph 20.7 mph N/A   Clear
5:55 PM 92.7 °F 92.1 °F 59.9 °F 33% 29.92 in 10.0 mi SSW 15.0 mph 19.6 mph N/A   Clear
6:15 PM 91.6 °F 91.3 °F 60.3 °F 35% 29.94 in 10.0 mi SSW 13.8 mph - N/A   Scattered Clouds
6:35 PM 91.2 °F 91.1 °F 61.2 °F 36% 29.94 in 10.0 mi SSW 9.2 mph - N/A   Scattered Clouds
6:55 PM 90.9 °F 91.3 °F 62.2 °F 38% 29.94 in 10.0 mi SSW 10.4 mph - N/A   Scattered Clouds
7:15 PM 90.3 °F 90.8 °F 62.6 °F 39% 29.94 in 10.0 mi South 8.1 mph - N/A   Clear
7:35 PM 89.6 °F 90.1 °F 62.1 °F 40% 29.95 in 10.0 mi SSW 10.4 mph - N/A   Clear
7:55 PM 88.5 °F 89.2 °F 62.8 °F 42% 29.96 in 10.0 mi SSW 10.4 mph - N/A   Scattered Clouds
8:15 PM 88.3 °F 89.2 °F 63.0 °F 43% 29.96 in 10.0 mi SSW 12.7 mph 19.6 mph N/A   Scattered Clouds
8:35 PM 87.3 °F 87.7 °F 62.1 °F 43% 29.96 in 10.0 mi SSW 11.5 mph 19.6 mph N/A   Clear
8:55 PM 86.5 °F 86.5 °F 60.8 °F 42% 29.97 in 10.0 mi SW 11.5 mph - N/A   Scattered Clouds
9:15 PM 85.6 °F 85.7 °F 61.0 °F 43% 29.98 in 10.0 mi SW 9.2 mph - N/A   Mostly Cloudy
9:35 PM 82.4 °F 83.4 °F 62.6 °F 51% 30.00 in 10.0 mi NNW 8.1 mph - N/A   Mostly Cloudy
9:55 PM 80.6 °F 81.9 °F 63.1 °F 55% 30.01 in 10.0 mi Calm Calm - N/A   Scattered Clouds
10:15 PM 79.7 °F - 63.5 °F 58% 30.01 in 10.0 mi Calm Calm - N/A   Scattered Clouds
10:35 PM 78.6 °F - 64.0 °F 61% 30.00 in 10.0 mi Calm Calm - N/A   Clear
10:55 PM 77.9 °F - 64.2 °F 63% 30.00 in 10.0 mi Calm Calm - N/A   Clear
11:15 PM 76.5 °F - 64.8 °F 67% 30.00 in 10.0 mi Calm Calm - N/A   Clear
11:35 PM 76.3 °F - 64.6 °F 67% 29.99 in 10.0 mi Calm Calm - N/A   Clear
11:55 PM 76.5 °F - 64.6 °F 67% 29.99 in 10.0 mi Calm Calm - N/A   Clear